Location: Alvediston
(51.0078°N, 2.0364°W)
Time: 02:15:16
(UTC+00:00)

NOSS 3-2 (C) - Pass Details

Date: 27 February 2020
Orbit: 813 x 1399 km, 63.4° (Epoch: 06 March)

Event Time Altitude Azimuth Distance (km) Brightness Sun altitude
Rises 18:58:56 0° 310° (NW) 3,811 7.5 -12.4°
Reaches altitude 10° 19:01:33 10° 317° (NW) 2,939 6.7 -12.8°
Maximum altitude 19:08:23 48° 31° (NNE) 1,537 4.3 -13.9°
Enters shadow 19:13:51 20° 96° (E) 2,617 5.1 -14.8°
